Location: Quedlinburg
(51.7921°N, 11.1414°E)
Time: 05:24:12
(UTC+02:00)

STRAND 1 - Pass Details

Date: 24 March 2026
Orbit: 761 x 775 km, 98.4° (Epoch: 16 April)

Event Time Altitude Azimuth Distance (km) Brightness Sun altitude
Rises 19:16:57 0° 10° (N) 3,240 ? -7.2°
Reaches altitude 10° 19:19:23 10° 2° (N) 2,308 ? -7.6°
Maximum altitude 19:24:02 38° 296° (WNW) 1,161 ? -8.3°
Drops below altitude 10° 19:28:40 10° 230° (SW) 2,293 ? -9.0°
Sets 19:31:05 0° 222° (SW) 3,216 ? -9.3°
